User: anonymous   Login
Location: Newark
(11.2914°S, 14.4718°E)
Time: 18:39:14
(UTC+00:00)
Language:

Explorer 7 - Orbit

View from above orbital plane
View from above orbital plane
View from above satellite
View from above satellite

Ground track
Ground track

The orbit data is extracted from the following two-line orbital elements,

1    22U 59009A   19293.94494551 +.00000125 +00000-0 +32875-4 0  9999
2    22 050.2827 150.3870 0140162 059.9382 301.5381 14.94960473434395
Epoch (UTC): 20 October 2019 22:40:43
Eccentricity: 0.0140162
inclination: 50.2827°
perigee height: 485 km
apogee height: 680 km
right ascension of ascending node: 150.3870°
argument of perigee: 59.9382°
revolutions per day: 14.94960473
mean anomaly at epoch: 301.5381°
orbit number at epoch: 43439

The dashed part of the orbit path shows where the satellite is in the earth's shadow,  

DLR